This is the latest recevied weather packets stored in our database for station/object IK3SVW-3. If no packets are shown the sender has not sent any weather packets the latest 10 day(s).
| Time | Temp. | Humidity | Pressure | Rain* | Wind** | Luminosity | Snow |
|---|---|---|---|---|---|---|---|
| 1777777185 | 13.89° C | 58% | 1018 hPa | 0 mm | - | - | - |
| 1777775896 | 13.89° C | 57% | 1018 hPa | 0 mm | - | - | - |
| 1777775865 | 13.89° C | 57% | 1018 hPa | 0 mm | - | - | - |
| 1777775204 | 13.89° C | 57% | 1018 hPa | 0 mm | - | - | - |
| 1777774544 | 13.89° C | 56% | 1018 hPa | 0 mm | - | - | - |
| 1777772926 | 14.44° C | 54% | 1018 hPa | 0 mm | - | - | - |
| 1777767344 | 15.56° C | 49% | 1019 hPa | 0 mm | - | - | - |
| 1777765066 | 16.11° C | 49% | 1019 hPa | 0 mm | - | - | - |
| 1777764404 | 16.11° C | 49% | 1019 hPa | 0 mm | - | - | - |
| 1777760804 | 17.78° C | 47% | 1019 hPa | 0 mm | - | - | - |
| 1777760144 | 17.78° C | 47% | 1019 hPa | 0 mm | - | - | - |
| 1777757877 | 17.78° C | 48% | 1019 hPa | 0 mm | - | - | - |
| 1777757206 | 18.33° C | 47% | 1019 hPa | 0 mm | - | - | - |
| 1777756547 | 18.33° C | 47% | 1019 hPa | 0 mm | - | - | - |
| 1777755886 | 18.33° C | 46% | 1019 hPa | 0 mm | - | - | - |
| 1777754264 | 18.89° C | 44% | 1019 hPa | 0 mm | - | - | - |
| 1777753610 | 19.44° C | 43% | 1019 hPa | 0 mm | - | - | - |
| 1777752945 | 19.44° C | 42% | 1019 hPa | 0 mm | - | - | - |
| 1777752286 | 19.44° C | 42% | 1019 hPa | 0 mm | - | - | - |
| 1777751324 | 20° C | 40% | 1019 hPa | 0 mm | - | - | - |
| 1777749344 | 20.56° C | 37% | 1019 hPa | 0 mm | - | - | - |
| 1777748686 | 20.56° C | 37% | 1019 hPa | 0 mm | - | - | - |
| 1777748386 | 20.56° C | 36% | 1019 hPa | 0 mm | - | - | - |
| 1777747724 | 21.11° C | 35% | 1019 hPa | 0 mm | - | - | - |
| 1777744786 | 22.22° C | 33% | 1019 hPa | 0 mm | - | - | - |
* Rain latest hour (hover to see other rain measurements)
** Current wind speed in m/s (hover to see current wind gust speed)